Time,TemperatureF,DewpointF,PressureIn,WindDirection,WindDirectionDegrees,WindSpeedMPH,WindSpeedGustMPH,Humidity,HourlyPrecipIn,Conditions,Clouds,dailyrainin,SoftwareType,DateUTC
2013-01-24 00:00:00,49.0,38.1,27.28,South,180,2.9,2.9,66,0.00,,,0.00,WUHU216HW,2013-01-24 05:00:00,
2013-01-24 00:01:00,49.0,38.1,27.28,South,180,2.9,2.9,66,0.00,,,0.00,WUHU216HW,2013-01-24 05:01:00,
2013-01-24 00:03:00,49.0,38.1,27.28,SSW,203,1.8,2.9,66,0.00,,,0.00,WUHU216HW,2013-01-24 05:03:00,
2013-01-24 00:08:00,49.3,38.0,27.29,SW,225,1.1,2.9,65,0.00,,,0.00,WUHU216HW,2013-01-24 05:08:00,
2013-01-24 00:13:00,49.3,38.4,27.29,WSW,248,0.0,1.8,66,0.00,,,0.00,WUHU216HW,2013-01-24 05:13:00,
2013-01-24 00:18:00,49.3,38.4,27.28,SSW,203,0.0,1.1,66,0.00,,,0.00,WUHU216HW,2013-01-24 05:18:00,
2013-01-24 00:23:00,49.3,38.0,27.27,SSW,203,0.0,0.0,65,0.00,,,0.00,WUHU216HW,2013-01-24 05:23:00,
2013-01-24 00:28:00,49.3,38.0,27.28,WSW,248,0.0,0.0,65,0.00,,,0.00,WUHU216HW,2013-01-24 05:28:00,
2013-01-24 00:33:00,49.3,38.5,27.27,SSW,203,0.2,0.2,66,0.00,,,0.00,WUHU216HW,2013-01-24 05:33:00,
2013-01-24 00:38:00,49.0,38.2,27.17,NW,315,0.0,0.4,66,0.00,,,0.00,WUHU216HW,2013-01-24 05:38:00,
2013-01-24 00:43:00,48.8,37.9,26.66,North,0,0.0,0.7,66,0.00,,,0.00,WUHU216HW,2013-01-24 05:43:00,
2013-01-24 00:48:00,48.6,37.9,26.69,NNW,338,0.0,0.7,66,0.00,,,0.00,WUHU216HW,2013-01-24 05:48:00,
2013-01-24 00:53:00,48.6,37.7,29.22,NW,315,0.0,0.2,66,0.00,,,0.00,WUHU216HW,2013-01-24 05:53:00,
2013-01-24 00:58:00,48.6,38.1,29.23,NW,315,0.0,0.2,67,0.00,,,0.00,WUHU216HW,2013-01-24 05:58:00,
2013-01-24 01:03:00,48.6,38.5,29.21,NW,315,0.0,0.0,68,0.00,,,0.00,WUHU216HW,2013-01-24 06:03:00,
2013-01-24 01:08:00,48.4,37.9,29.20,WNW,293,0.4,0.4,67,0.00,,,0.00,WUHU216HW,2013-01-24 06:08:00,
2013-01-24 01:13:00,48.6,38.1,29.19,West,270,0.0,0.4,67,0.00,,,0.00,WUHU216HW,2013-01-24 06:13:00,
2013-01-24 01:18:00,48.6,38.1,29.19,South,180,0.2,1.1,67,0.00,,,0.00,WUHU216HW,2013-01-24 06:18:00,
2013-01-24 01:23:00,48.6,38.1,29.19,SSW,203,0.4,1.1,67,0.00,,,0.00,WUHU216HW,2013-01-24 06:23:00,
2013-01-24 01:28:00,48.6,37.7,29.19,WSW,248,0.0,0.9,66,0.00,,,0.00,WUHU216HW,2013-01-24 06:28:00,
2013-01-24 01:33:00,48.6,38.1,29.18,SSW,203,0.0,0.4,67,0.00,,,0.00,WUHU216HW,2013-01-24 06:33:00,
2013-01-24 01:38:00,48.6,38.1,29.18,SW,225,0.7,0.7,67,0.00,,,0.00,WUHU216HW,2013-01-24 06:38:00,
2013-01-24 01:43:00,48.4,37.9,29.18,SSW,203,0.7,1.1,67,0.00,,,0.00,WUHU216HW,2013-01-24 06:43:00,
2013-01-24 01:48:00,48.4,37.9,29.17,SSW,203,2.5,2.5,67,0.00,,,0.00,WUHU216HW,2013-01-24 06:48:00,
2013-01-24 01:53:00,48.2,37.7,29.17,SW,225,2.9,4.3,67,0.00,,,0.00,WUHU216HW,2013-01-24 06:53:00,
2013-01-24 01:58:00,48.4,37.9,29.17,South,180,0.7,4.3,67,0.00,,,0.00,WUHU216HW,2013-01-24 06:58:00,
2013-01-24 02:03:00,48.4,37.9,29.17,SW,225,2.9,2.9,67,0.00,,,0.00,WUHU216HW,2013-01-24 07:03:00,
2013-01-24 02:08:00,48.4,37.9,29.16,SSW,203,1.6,2.9,67,0.00,,,0.00,WUHU216HW,2013-01-24 07:08:00,
2013-01-24 02:13:00,48.2,37.7,29.16,SSW,203,1.1,2.9,67,0.00,,,0.00,WUHU216HW,2013-01-24 07:13:00,
2013-01-24 02:18:00,48.1,37.6,29.15,SW,225,1.8,2.2,67,0.00,,,0.00,WUHU216HW,2013-01-24 07:18:00,
2013-01-24 02:23:00,47.9,37.8,29.16,SSW,203,1.8,2.2,68,0.00,,,0.00,WUHU216HW,2013-01-24 07:23:00,
2013-01-24 02:28:00,47.9,37.8,29.19,SW,225,2.5,2.5,68,0.00,,,0.00,WUHU216HW,2013-01-24 07:28:00,
2013-01-24 02:33:00,47.9,37.8,29.19,South,180,2.7,2.7,68,0.00,,,0.00,WUHU216HW,2013-01-24 07:33:00,
2013-01-24 02:38:00,47.7,37.6,29.19,SSW,203,3.6,3.6,68,0.00,,,0.00,WUHU216HW,2013-01-24 07:38:00,
2013-01-24 02:43:00,47.7,37.6,29.20,SW,225,1.8,3.6,68,0.00,,,0.00,WUHU216HW,2013-01-24 07:43:00,
2013-01-24 02:48:00,47.7,37.6,29.19,SSW,203,1.8,3.8,68,0.00,,,0.00,WUHU216HW,2013-01-24 07:48:00,
2013-01-24 02:53:00,47.5,37.9,29.20,SW,225,1.8,3.8,69,0.00,,,0.00,WUHU216HW,2013-01-24 07:53:00,
2013-01-24 02:58:00,47.5,37.9,29.19,WSW,248,2.7,2.9,69,0.00,,,0.00,WUHU216HW,2013-01-24 07:58:00,
2013-01-24 03:03:00,47.7,38.0,29.20,SW,225,2.7,2.9,69,0.00,,,0.00,WUHU216HW,2013-01-24 08:03:00,
2013-01-24 03:08:00,47.5,37.9,29.20,WSW,248,2.9,3.1,69,0.00,,,0.00,WUHU216HW,2013-01-24 08:08:00,
2013-01-24 03:13:00,47.5,37.9,29.21,SW,225,1.8,3.1,69,0.00,,,0.00,WUHU216HW,2013-01-24 08:13:00,
2013-01-24 03:18:00,47.5,37.9,29.20,South,180,1.3,2.9,69,0.00,,,0.00,WUHU216HW,2013-01-24 08:18:00,
2013-01-24 03:23:00,47.3,37.7,29.19,SSW,203,3.4,3.4,69,0.00,,,0.00,WUHU216HW,2013-01-24 08:23:00,
2013-01-24 03:28:00,47.3,37.7,29.20,SSW,203,1.8,3.8,69,0.00,,,0.00,WUHU216HW,2013-01-24 08:28:00,
2013-01-24 03:33:00,47.3,38.1,29.20,SW,225,2.0,4.7,70,0.00,,,0.00,WUHU216HW,2013-01-24 08:33:00,
2013-01-24 03:38:00,47.3,38.1,29.19,SW,225,3.4,4.7,70,0.00,,,0.00,WUHU216HW,2013-01-24 08:38:00,
2013-01-24 03:43:00,47.5,38.3,29.19,SW,225,2.5,4.5,70,0.00,,,0.00,WUHU216HW,2013-01-24 08:43:00,
2013-01-24 03:48:00,47.5,38.6,29.17,WSW,248,1.1,3.4,71,0.00,,,0.00,WUHU216HW,2013-01-24 08:48:00,
2013-01-24 03:53:00,47.7,38.7,29.19,SW,225,1.1,2.5,71,0.00,,,0.00,WUHU216HW,2013-01-24 08:53:00,
2013-01-24 03:58:00,47.7,38.7,29.20,SW,225,1.1,1.3,71,0.00,,,0.00,WUHU216HW,2013-01-24 08:58:00,
2013-01-24 04:03:00,47.7,38.7,29.19,SW,225,1.3,2.5,71,0.00,,,0.00,WUHU216HW,2013-01-24 09:03:00,
2013-01-24 04:08:00,47.7,38.7,29.17,WSW,248,1.1,2.5,71,0.00,,,0.00,WUHU216HW,2013-01-24 09:08:00,
2013-01-24 04:13:00,47.7,38.7,29.18,SW,225,1.1,1.8,71,0.00,,,0.00,WUHU216HW,2013-01-24 09:13:00,
2013-01-24 04:18:00,47.5,38.6,29.17,SSW,203,2.2,3.4,71,0.00,,,0.00,WUHU216HW,2013-01-24 09:18:00,
2013-01-24 04:23:00,47.5,38.9,29.19,SW,225,2.7,3.4,72,0.00,,,0.00,WUHU216HW,2013-01-24 09:23:00,
2013-01-24 04:28:00,47.5,38.9,29.21,SW,225,2.7,3.1,72,0.00,,,0.00,WUHU216HW,2013-01-24 09:28:00,
2013-01-24 04:33:00,47.7,39.1,29.24,WSW,248,1.8,3.1,72,0.00,,,0.00,WUHU216HW,2013-01-24 09:33:00,
2013-01-24 04:38:00,47.9,39.2,29.23,SW,225,3.4,3.4,72,0.00,,,0.00,WUHU216HW,2013-01-24 09:38:00,
2013-01-24 04:43:00,47.9,39.2,29.26,SW,225,1.6,3.4,72,0.00,,,0.00,WUHU216HW,2013-01-24 09:43:00,
2013-01-24 04:48:00,47.7,39.1,29.25,SSW,203,1.1,3.4,72,0.00,,,0.00,WUHU216HW,2013-01-24 09:48:00,
2013-01-24 04:53:00,47.9,39.2,29.22,WSW,248,2.0,2.0,72,0.00,,,0.00,WUHU216HW,2013-01-24 09:53:00,
2013-01-24 04:58:00,47.9,39.2,29.22,SSW,203,0.7,4.7,72,0.00,,,0.00,WUHU216HW,2013-01-24 09:58:00,
2013-01-24 05:03:00,47.9,39.2,29.20,NW,315,0.9,4.7,72,0.00,,,0.00,WUHU216HW,2013-01-24 10:03:00,
2013-01-24 05:08:00,47.9,39.2,29.19,WNW,293,1.6,1.6,72,0.00,,,0.00,WUHU216HW,2013-01-24 10:08:00,
2013-01-24 05:13:00,47.9,39.2,29.21,West,270,0.7,1.6,72,0.00,,,0.00,WUHU216HW,2013-01-24 10:13:00,
2013-01-24 05:18:00,47.9,39.2,29.19,WSW,248,1.3,2.2,72,0.00,,,0.00,WUHU216HW,2013-01-24 10:18:00,
2013-01-24 05:23:00,48.2,39.6,29.21,WSW,248,4.0,4.0,72,0.00,,,0.00,WUHU216HW,2013-01-24 10:23:00,
2013-01-24 05:28:00,48.4,39.8,29.22,SW,225,4.0,4.0,72,0.00,,,0.00,WUHU216HW,2013-01-24 10:28:00,
2013-01-24 05:33:00,48.6,40.0,29.21,SSW,203,1.1,4.0,72,0.00,,,0.00,WUHU216HW,2013-01-24 10:33:00,
2013-01-24 05:38:00,48.8,40.2,29.21,WSW,248,1.8,4.0,72,0.00,,,0.00,WUHU216HW,2013-01-24 10:38:00,
2013-01-24 05:43:00,49.0,40.3,29.23,WSW,248,1.8,1.8,72,0.00,,,0.00,WUHU216HW,2013-01-24 10:43:00,
2013-01-24 05:48:00,49.0,40.3,29.24,WSW,248,1.1,1.8,72,0.00,,,0.00,WUHU216HW,2013-01-24 10:48:00,
2013-01-24 05:53:00,49.1,40.5,29.22,SW,225,2.2,3.1,72,0.00,,,0.00,WUHU216HW,2013-01-24 10:53:00,
2013-01-24 05:58:00,49.1,40.5,29.23,West,270,1.8,4.0,72,0.00,,,0.00,WUHU216HW,2013-01-24 10:58:00,
2013-01-24 06:03:00,49.1,40.5,29.21,SW,225,1.3,4.0,72,0.00,,,0.00,WUHU216HW,2013-01-24 11:03:00,
2013-01-24 06:08:00,49.1,40.5,29.21,West,270,1.1,2.5,72,0.00,,,0.00,WUHU216HW,2013-01-24 11:08:00,
2013-01-24 06:13:00,49.1,40.8,29.21,SW,225,1.1,3.1,73,0.00,,,0.00,WUHU216HW,2013-01-24 11:13:00,
2013-01-24 06:18:00,49.3,41.0,29.22,SW,225,4.0,4.0,73,0.00,,,0.00,WUHU216HW,2013-01-24 11:18:00,
2013-01-24 06:23:00,49.3,41.0,29.20,SW,225,1.3,4.3,73,0.00,,,0.00,WUHU216HW,2013-01-24 11:23:00,
2013-01-24 06:28:00,49.5,41.1,29.21,SW,225,3.4,4.3,73,0.00,,,0.00,WUHU216HW,2013-01-24 11:28:00,
2013-01-24 06:33:00,49.5,41.1,29.21,SW,225,2.2,3.4,73,0.00,,,0.00,WUHU216HW,2013-01-24 11:33:00,
2013-01-24 06:38:00,49.5,41.1,29.21,WSW,248,3.6,3.6,73,0.00,,,0.00,WUHU216HW,2013-01-24 11:38:00,
2013-01-24 06:43:00,49.5,41.5,29.22,SSW,203,2.0,3.6,74,0.00,,,0.00,WUHU216HW,2013-01-24 11:43:00,
2013-01-24 06:48:00,49.5,41.5,29.22,SSW,203,1.6,3.6,74,0.00,,,0.00,WUHU216HW,2013-01-24 11:48:00,
2013-01-24 06:53:00,49.7,41.7,29.23,South,180,2.9,2.9,74,0.00,,,0.00,WUHU216HW,2013-01-24 11:53:00,
2013-01-24 06:58:00,49.7,41.7,29.22,SSW,203,1.3,2.9,74,0.00,,,0.00,WUHU216HW,2013-01-24 11:58:00,
2013-01-24 07:03:00,49.7,41.7,29.22,South,180,2.5,2.9,74,0.00,,,0.00,WUHU216HW,2013-01-24 12:03:00,
2013-01-24 07:08:00,49.5,41.5,29.22,WSW,248,3.4,3.4,74,0.00,,,0.00,WUHU216HW,2013-01-24 12:08:00,
2013-01-24 07:13:00,49.5,41.9,29.24,West,270,1.8,3.6,75,0.00,,,0.00,WUHU216HW,2013-01-24 12:13:00,
2013-01-24 07:18:00,49.7,42.0,29.22,SW,225,1.8,3.6,75,0.00,,,0.00,WUHU216HW,2013-01-24 12:18:00,
2013-01-24 07:23:00,49.7,42.0,29.20,WSW,248,1.1,2.2,75,0.00,,,0.00,WUHU216HW,2013-01-24 12:23:00,
2013-01-24 07:28:00,49.7,42.0,29.20,South,180,0.2,1.8,75,0.00,,,0.00,WUHU216HW,2013-01-24 12:28:00,
2013-01-24 07:33:00,49.7,42.0,29.11,West,270,1.6,3.1,75,0.00,,,0.00,WUHU216HW,2013-01-24 12:33:00,
2013-01-24 07:38:00,49.7,42.0,29.12,West,270,2.5,4.3,75,0.00,,,0.00,WUHU216HW,2013-01-24 12:38:00,
2013-01-24 07:43:00,49.7,42.0,29.12,WSW,248,2.9,4.7,75,0.00,,,0.00,WUHU216HW,2013-01-24 12:43:00,
2013-01-24 07:48:00,49.7,42.0,29.10,WSW,248,3.1,4.7,75,0.00,,,0.00,WUHU216HW,2013-01-24 12:48:00,
2013-01-24 07:53:00,49.9,42.2,29.11,SW,225,5.1,5.1,75,0.00,,,0.00,WUHU216HW,2013-01-24 12:53:00,
2013-01-24 07:58:00,49.9,42.2,29.15,SSW,203,2.5,5.1,75,0.00,,,0.00,WUHU216HW,2013-01-24 12:58:00,
2013-01-24 08:03:00,50.0,42.4,29.14,WSW,248,2.7,5.1,75,0.00,,,0.00,WUHU216HW,2013-01-24 13:03:00,
2013-01-24 08:08:00,50.4,42.8,29.15,SSW,203,1.1,4.5,75,0.00,,,0.00,WUHU216HW,2013-01-24 13:08:00,
2013-01-24 08:13:00,50.6,42.9,29.15,WSW,248,3.6,3.8,75,0.00,,,0.00,WUHU216HW,2013-01-24 13:13:00,
2013-01-24 08:18:00,50.6,42.6,29.16,WSW,248,1.8,3.6,74,0.00,,,0.00,WUHU216HW,2013-01-24 13:18:00,
2013-01-24 08:23:00,50.8,42.8,29.17,South,180,3.1,3.6,74,0.00,,,0.00,WUHU216HW,2013-01-24 13:23:00,
2013-01-24 08:28:00,51.5,43.1,29.18,South,180,2.5,4.0,73,0.00,,,0.00,WUHU216HW,2013-01-24 13:28:00,
2013-01-24 08:33:00,51.8,43.5,29.16,WSW,248,2.5,4.0,73,0.00,,,0.00,WUHU216HW,2013-01-24 13:33:00,
2013-01-24 08:38:00,52.4,43.7,29.20,WSW,248,4.3,4.3,72,0.00,,,0.00,WUHU216HW,2013-01-24 13:38:00,
2013-01-24 08:43:00,52.6,43.5,29.20,WSW,248,2.7,4.3,71,0.00,,,0.00,WUHU216HW,2013-01-24 13:43:00,
2013-01-24 08:48:00,53.3,44.1,29.19,SW,225,5.6,5.6,71,0.00,,,0.00,WUHU216HW,2013-01-24 13:48:00,
2013-01-24 08:53:00,53.6,44.1,29.20,WSW,248,2.5,6.9,70,0.00,,,0.00,WUHU216HW,2013-01-24 13:53:00,
2013-01-24 08:58:00,54.4,44.8,29.22,WSW,248,2.5,6.9,70,0.00,,,0.00,WUHU216HW,2013-01-24 13:58:00,
2013-01-24 09:03:00,54.7,45.2,29.25,WSW,248,4.7,6.5,70,0.00,,,0.00,WUHU216HW,2013-01-24 14:03:00,
2013-01-24 09:08:00,55.1,45.5,29.23,West,270,8.1,8.1,70,0.00,,,0.00,WUHU216HW,2013-01-24 14:08:00,
2013-01-24 09:13:00,55.6,46.1,29.24,West,270,5.6,8.1,70,0.00,,,0.00,WUHU216HW,2013-01-24 14:13:00,
2013-01-24 09:18:00,55.6,46.1,29.23,West,270,10.1,10.1,70,0.00,,,0.00,WUHU216HW,2013-01-24 14:18:00,
2013-01-24 09:23:00,56.2,46.5,29.24,West,270,6.5,10.1,70,0.00,,,0.00,WUHU216HW,2013-01-24 14:23:00,
2013-01-24 09:28:00,56.5,47.3,29.23,WSW,248,7.8,10.1,71,0.00,,,0.00,WUHU216HW,2013-01-24 14:28:00,
2013-01-24 09:33:00,56.9,47.5,29.25,WSW,248,6.5,7.8,71,0.00,,,0.00,WUHU216HW,2013-01-24 14:33:00,
2013-01-24 09:38:00,57.2,47.9,29.24,SW,225,4.3,7.8,71,0.00,,,0.00,WUHU216HW,2013-01-24 14:38:00,
2013-01-24 09:43:00,58.1,48.8,29.25,West,270,2.9,6.5,71,0.00,,,0.00,WUHU216HW,2013-01-24 14:43:00,
2013-01-24 09:48:00,58.7,49.0,29.24,West,270,7.6,7.6,70,0.00,,,0.00,WUHU216HW,2013-01-24 14:48:00,
2013-01-24 09:53:00,58.7,49.0,29.25,WSW,248,7.2,7.6,70,0.00,,,0.00,WUHU216HW,2013-01-24 14:53:00,
2013-01-24 09:58:00,59.0,48.9,29.26,WNW,293,7.2,7.6,69,0.00,,,0.00,WUHU216HW,2013-01-24 14:58:00,
2013-01-24 10:03:00,59.8,49.6,29.27,West,270,4.5,7.6,69,0.00,,,0.00,WUHU216HW,2013-01-24 15:03:00,
2013-01-24 10:08:00,60.8,50.3,29.27,West,270,9.8,9.8,68,0.00,,,0.00,WUHU216HW,2013-01-24 15:08:00,
2013-01-24 10:13:00,60.1,49.1,29.27,WNW,293,9.4,10.7,67,0.00,,,0.00,WUHU216HW,2013-01-24 15:13:00,
2013-01-24 10:18:00,59.9,49.4,29.27,West,270,8.3,10.7,68,0.00,,,0.00,WUHU216HW,2013-01-24 15:18:00,
2013-01-24 10:23:00,61.2,50.2,29.25,West,270,6.9,9.4,67,0.00,,,0.00,WUHU216HW,2013-01-24 15:23:00,
2013-01-24 10:28:00,61.7,49.9,29.25,SW,225,6.3,8.3,65,0.00,,,0.00,WUHU216HW,2013-01-24 15:28:00,
2013-01-24 10:33:00,62.3,50.3,29.25,West,270,4.5,6.9,65,0.00,,,0.00,WUHU216HW,2013-01-24 15:33:00,
2013-01-24 10:38:00,62.3,50.3,29.23,West,270,4.5,6.3,65,0.00,,,0.00,WUHU216HW,2013-01-24 15:38:00,
2013-01-24 10:43:00,62.3,50.3,29.26,West,270,4.5,4.5,65,0.00,,,0.00,WUHU216HW,2013-01-24 15:43:00,
2013-01-24 10:48:00,64.1,49.9,29.26,WSW,248,6.0,6.0,60,0.00,,,0.00,WUHU216HW,2013-01-24 15:48:00,
2013-01-24 10:53:00,64.8,50.1,29.25,SSW,203,3.8,8.5,59,0.00,,,0.00,WUHU216HW,2013-01-24 15:53:00,
2013-01-24 10:58:00,65.3,51.1,29.25,WNW,293,7.6,9.2,60,0.00,,,0.00,WUHU216HW,2013-01-24 15:58:00,
2013-01-24 11:03:00,65.9,50.7,29.25,West,270,8.5,9.2,58,0.00,,,0.00,WUHU216HW,2013-01-24 16:03:00,
2013-01-24 11:08:00,65.9,50.7,29.25,NW,315,8.5,8.5,58,0.00,,,0.00,WUHU216HW,2013-01-24 16:08:00,
2013-01-24 11:13:00,67.3,51.6,29.26,West,270,3.8,8.5,57,0.00,,,0.00,WUHU216HW,2013-01-24 16:13:00,
2013-01-24 11:18:00,67.9,51.6,29.26,West,270,3.8,8.5,56,0.00,,,0.00,WUHU216HW,2013-01-24 16:18:00,
2013-01-24 11:23:00,66.6,50.9,29.25,WSW,248,6.9,6.9,57,0.00,,,0.00,WUHU216HW,2013-01-24 16:23:00,
2013-01-24 11:28:00,67.0,50.8,29.24,West,270,5.6,8.5,56,0.00,,,0.00,WUHU216HW,2013-01-24 16:28:00,
2013-01-24 11:33:00,67.5,51.2,29.24,WNW,293,11.0,11.2,56,0.00,,,0.00,WUHU216HW,2013-01-24 16:33:00,
2013-01-24 11:38:00,68.4,51.6,29.23,WSW,248,10.7,11.2,55,0.00,,,0.00,WUHU216HW,2013-01-24 16:38:00,
2013-01-24 11:43:00,67.9,51.0,29.23,WSW,248,9.4,11.0,55,0.00,,,0.00,WUHU216HW,2013-01-24 16:43:00,
2013-01-24 11:48:00,68.8,51.9,29.23,NW,315,10.7,10.7,55,0.00,,,0.00,WUHU216HW,2013-01-24 16:48:00,
2013-01-24 11:53:00,69.8,51.9,29.22,NW,315,7.6,10.7,53,0.00,,,0.00,WUHU216HW,2013-01-24 16:53:00,
2013-01-24 11:58:00,69.3,51.4,29.22,WSW,248,6.9,13.4,53,0.00,,,0.00,WUHU216HW,2013-01-24 16:58:00,
2013-01-24 12:03:00,69.1,51.8,29.20,WSW,248,11.9,14.3,54,0.00,,,0.00,WUHU216HW,2013-01-24 17:03:00,
2013-01-24 12:08:00,70.6,52.0,29.21,West,270,7.8,14.3,52,0.00,,,0.00,WUHU216HW,2013-01-24 17:08:00,
2013-01-24 12:13:00,71.3,52.2,29.21,WSW,248,12.3,12.3,51,0.00,,,0.00,WUHU216HW,2013-01-24 17:13:00,
2013-01-24 12:18:00,70.9,51.8,29.21,WNW,293,8.5,12.3,51,0.00,,,0.00,WUHU216HW,2013-01-24 17:18:00,
2013-01-24 12:23:00,71.1,52.0,29.22,WSW,248,8.5,12.3,51,0.00,,,0.00,WUHU216HW,2013-01-24 17:23:00,
2013-01-24 12:28:00,70.9,52.9,29.20,WNW,293,6.9,8.5,53,0.00,,,0.00,WUHU216HW,2013-01-24 17:28:00,
2013-01-24 12:33:00,71.8,52.7,29.20,WNW,293,12.8,12.8,51,0.00,,,0.00,WUHU216HW,2013-01-24 17:33:00,
2013-01-24 12:38:00,71.8,52.2,29.20,WNW,293,9.8,12.8,50,0.00,,,0.00,WUHU216HW,2013-01-24 17:38:00,
2013-01-24 12:43:00,71.6,52.6,29.20,NW,315,10.7,12.8,51,0.00,,,0.00,WUHU216HW,2013-01-24 17:43:00,
2013-01-24 12:48:00,71.6,52.6,29.20,WNW,293,9.6,10.7,51,0.00,,,0.00,WUHU216HW,2013-01-24 17:48:00,
2013-01-24 12:53:00,72.0,52.8,29.20,NW,315,9.4,10.7,51,0.00,,,0.00,WUHU216HW,2013-01-24 17:53:00,
2013-01-24 12:58:00,71.6,51.4,29.21,WNW,293,14.3,14.3,49,0.00,,,0.00,WUHU216HW,2013-01-24 17:58:00,
2013-01-24 13:03:00,70.6,51.6,29.20,WNW,293,9.8,14.3,51,0.00,,,0.00,WUHU216HW,2013-01-24 18:03:00,
2013-01-24 13:08:00,70.2,51.2,29.19,WNW,293,6.5,14.3,51,0.00,,,0.00,WUHU216HW,2013-01-24 18:08:00,
2013-01-24 13:13:00,70.9,52.4,29.19,West,270,10.5,10.5,52,0.00,,,0.00,WUHU216HW,2013-01-24 18:13:00,
2013-01-24 13:18:00,72.7,51.9,29.19,NW,315,11.4,15.0,48,0.00,,,0.00,WUHU216HW,2013-01-24 18:18:00,
2013-01-24 13:23:00,72.9,51.4,29.18,NW,315,9.4,15.0,47,0.00,,,0.00,WUHU216HW,2013-01-24 18:23:00,
2013-01-24 13:28:00,72.9,51.9,29.18,WSW,248,9.4,11.4,48,0.00,,,0.00,WUHU216HW,2013-01-24 18:28:00,
2013-01-24 13:33:00,73.1,52.1,29.17,WNW,293,6.9,9.4,48,0.00,,,0.00,WUHU216HW,2013-01-24 18:33:00,
2013-01-24 13:38:00,74.0,52.4,29.16,NW,315,6.9,9.6,47,0.00,,,0.00,WUHU216HW,2013-01-24 18:38:00,
2013-01-24 13:43:00,73.8,52.8,29.16,West,270,7.6,9.6,48,0.00,,,0.00,WUHU216HW,2013-01-24 18:43:00,
2013-01-24 13:48:00,74.3,52.8,29.16,WNW,293,8.3,8.3,47,0.00,,,0.00,WUHU216HW,2013-01-24 18:48:00,
2013-01-24 13:53:00,73.8,52.2,29.16,NW,315,8.5,8.5,47,0.00,,,0.00,WUHU216HW,2013-01-24 18:53:00,
2013-01-24 13:58:00,73.1,52.1,29.15,NW,315,7.6,8.5,48,0.00,,,0.00,WUHU216HW,2013-01-24 18:58:00,
2013-01-24 14:03:00,73.1,52.1,29.15,NW,315,9.6,9.6,48,0.00,,,0.00,WUHU216HW,2013-01-24 19:03:00,
2013-01-24 14:08:00,75.1,52.8,29.15,WNW,293,8.9,9.6,46,0.00,,,0.00,WUHU216HW,2013-01-24 19:08:00,
2013-01-24 14:13:00,74.5,52.9,29.15,SW,225,7.8,9.6,47,0.00,,,0.00,WUHU216HW,2013-01-24 19:13:00,
2013-01-24 14:18:00,74.5,51.7,29.14,WSW,248,12.1,12.1,45,0.00,,,0.00,WUHU216HW,2013-01-24 19:18:00,
2013-01-24 14:23:00,73.3,51.7,29.14,WSW,248,8.9,12.1,47,0.00,,,0.00,WUHU216HW,2013-01-24 19:23:00,
2013-01-24 14:28:00,73.4,50.7,29.13,West,270,4.7,12.1,45,0.00,,,0.00,WUHU216HW,2013-01-24 19:28:00,
2013-01-24 14:33:00,73.1,50.3,29.14,WSW,248,11.4,11.4,45,0.00,,,0.00,WUHU216HW,2013-01-24 19:33:00,
2013-01-24 14:38:00,73.1,50.9,29.15,WNW,293,4.9,11.4,46,0.00,,,0.00,WUHU216HW,2013-01-24 19:38:00,
2013-01-24 14:43:00,74.5,52.3,29.13,SSW,203,4.3,11.4,46,0.00,,,0.00,WUHU216HW,2013-01-24 19:43:00,
2013-01-24 14:48:00,74.3,51.6,29.13,West,270,2.7,6.7,45,0.00,,,0.00,WUHU216HW,2013-01-24 19:48:00,
2013-01-24 14:53:00,75.4,52.6,29.13,West,270,5.8,6.3,45,0.00,,,0.00,WUHU216HW,2013-01-24 19:53:00,
2013-01-24 14:58:00,75.8,52.8,29.13,West,270,5.8,6.3,45,0.00,,,0.00,WUHU216HW,2013-01-24 19:58:00,
2013-01-24 15:03:00,76.5,52.3,29.13,WNW,293,9.2,9.2,43,0.00,,,0.00,WUHU216HW,2013-01-24 20:03:00,
2013-01-24 15:08:00,75.2,51.1,29.12,WSW,248,10.7,10.7,43,0.00,,,0.00,WUHU216HW,2013-01-24 20:08:00,
2013-01-24 15:13:00,75.2,51.1,29.12,WNW,293,8.3,10.7,43,0.00,,,0.00,WUHU216HW,2013-01-24 20:13:00,
2013-01-24 15:18:00,75.2,51.8,29.08,WNW,293,9.2,10.7,44,0.00,,,0.00,WUHU216HW,2013-01-24 20:18:00,
2013-01-24 15:23:00,74.7,51.3,29.09,WNW,293,5.4,9.2,44,0.00,,,0.00,WUHU216HW,2013-01-24 20:23:00,
2013-01-24 15:28:00,75.1,52.2,29.10,WSW,248,5.4,7.8,45,0.00,,,0.00,WUHU216HW,2013-01-24 20:28:00,
2013-01-24 15:33:00,74.3,51.0,29.10,WSW,248,12.1,12.1,44,0.00,,,0.00,WUHU216HW,2013-01-24 20:33:00,
2013-01-24 15:38:00,73.8,51.0,29.11,NW,315,6.0,12.1,45,0.00,,,0.00,WUHU216HW,2013-01-24 20:38:00,
2013-01-24 15:43:00,72.9,50.8,29.09,WNW,293,6.9,12.1,46,0.00,,,0.00,WUHU216HW,2013-01-24 20:43:00,
2013-01-24 15:48:00,75.2,53.0,29.09,NW,315,4.5,8.5,46,0.00,,,0.00,WUHU216HW,2013-01-24 20:48:00,
2013-01-24 15:53:00,76.3,52.7,29.08,WNW,293,5.8,6.9,44,0.00,,,0.00,WUHU216HW,2013-01-24 20:53:00,
2013-01-24 15:58:00,76.3,52.7,29.09,WNW,293,5.8,5.8,44,0.00,,,0.00,WUHU216HW,2013-01-24 20:58:00,
2013-01-24 16:03:00,74.5,51.1,29.09,WNW,293,10.1,10.1,44,0.00,,,0.00,WUHU216HW,2013-01-24 21:03:00,
2013-01-24 16:08:00,73.3,50.0,29.08,WNW,293,8.9,10.1,44,0.00,,,0.00,WUHU216HW,2013-01-24 21:08:00,
2013-01-24 16:13:00,73.1,50.9,29.08,ENE,68,2.9,10.1,46,0.00,,,0.00,WUHU216HW,2013-01-24 21:13:00,
2013-01-24 16:18:00,72.2,50.8,29.07,WNW,293,11.4,11.4,47,0.00,,,0.00,WUHU216HW,2013-01-24 21:18:00,
2013-01-24 16:23:00,72.0,50.6,29.06,NW,315,5.4,11.4,47,0.00,,,0.00,WUHU216HW,2013-01-24 21:23:00,
2013-01-24 16:28:00,72.4,50.9,29.07,NW,315,2.5,11.4,47,0.00,,,0.00,WUHU216HW,2013-01-24 21:28:00,
2013-01-24 16:33:00,71.8,50.4,29.06,WSW,248,3.1,8.5,47,0.00,,,0.00,WUHU216HW,2013-01-24 21:33:00,
2013-01-24 16:38:00,70.9,50.2,29.08,WNW,293,5.1,5.4,48,0.00,,,0.00,WUHU216HW,2013-01-24 21:38:00,
2013-01-24 16:43:00,70.9,50.8,29.09,WNW,293,4.3,5.4,49,0.00,,,0.00,WUHU216HW,2013-01-24 21:43:00,
2013-01-24 16:48:00,70.9,51.4,29.10,NW,315,6.5,6.5,50,0.00,,,0.00,WUHU216HW,2013-01-24 21:48:00,
2013-01-24 16:53:00,72.0,51.8,29.06,West,270,3.6,6.5,49,0.00,,,0.00,WUHU216HW,2013-01-24 21:53:00,
2013-01-24 16:58:00,72.7,51.9,29.10,NW,315,5.1,6.5,48,0.00,,,0.00,WUHU216HW,2013-01-24 21:58:00,
2013-01-24 17:03:00,72.0,51.1,29.10,NNE,23,1.6,5.1,48,0.00,,,0.00,WUHU216HW,2013-01-24 22:03:00,
2013-01-24 17:08:00,71.6,51.4,29.08,WNW,293,2.9,5.1,49,0.00,,,0.00,WUHU216HW,2013-01-24 22:08:00,
2013-01-24 17:13:00,71.1,50.9,29.11,West,270,2.5,2.9,49,0.00,,,0.00,WUHU216HW,2013-01-24 22:13:00,
2013-01-24 17:18:00,70.6,51.0,29.09,West,270,2.9,2.9,50,0.00,,,0.00,WUHU216HW,2013-01-24 22:18:00,
2013-01-24 17:23:00,70.2,51.2,29.09,WSW,248,2.5,2.9,51,0.00,,,0.00,WUHU216HW,2013-01-24 22:23:00,
2013-01-24 17:28:00,70.6,51.0,29.08,West,270,2.5,4.0,50,0.00,,,0.00,WUHU216HW,2013-01-24 22:28:00,
2013-01-24 17:33:00,70.6,51.6,29.08,WNW,293,3.1,4.0,51,0.00,,,0.00,WUHU216HW,2013-01-24 22:33:00,
2013-01-24 17:38:00,70.4,50.9,29.09,West,270,2.0,3.1,50,0.00,,,0.00,WUHU216HW,2013-01-24 22:38:00,
2013-01-24 17:43:00,69.5,50.6,29.08,WNW,293,1.1,3.1,51,0.00,,,0.00,WUHU216HW,2013-01-24 22:43:00,
2013-01-24 17:48:00,69.3,50.4,29.08,WNW,293,0.7,2.0,51,0.00,,,0.00,WUHU216HW,2013-01-24 22:48:00,
2013-01-24 17:53:00,69.1,50.2,29.09,West,270,4.3,4.3,51,0.00,,,0.00,WUHU216HW,2013-01-24 22:53:00,
2013-01-24 17:58:00,68.8,50.4,29.09,WNW,293,1.8,6.3,52,0.00,,,0.00,WUHU216HW,2013-01-24 22:58:00,
2013-01-24 18:03:00,68.4,50.0,29.11,WNW,293,4.0,6.3,52,0.00,,,0.00,WUHU216HW,2013-01-24 23:03:00,
2013-01-24 18:08:00,68.2,50.0,29.10,West,270,1.1,4.0,52,0.00,,,0.00,WUHU216HW,2013-01-24 23:08:00,
2013-01-24 18:13:00,68.0,50.2,29.10,West,270,1.6,4.0,53,0.00,,,0.00,WUHU216HW,2013-01-24 23:13:00,
2013-01-24 18:18:00,67.7,50.0,29.09,WNW,293,0.7,1.6,53,0.00,,,0.00,WUHU216HW,2013-01-24 23:18:00,
2013-01-24 18:23:00,67.5,49.8,29.06,West,270,1.3,1.6,53,0.00,,,0.00,WUHU216HW,2013-01-24 23:23:00,
2013-01-24 18:28:00,67.3,49.6,29.06,WNW,293,1.1,1.3,53,0.00,,,0.00,WUHU216HW,2013-01-24 23:28:00,
2013-01-24 18:33:00,67.1,50.0,29.04,West,270,0.9,1.3,54,0.00,,,0.00,WUHU216HW,2013-01-24 23:33:00,
2013-01-24 18:38:00,66.8,49.6,29.04,WNW,293,0.2,1.1,54,0.00,,,0.00,WUHU216HW,2013-01-24 23:38:00,
2013-01-24 18:43:00,66.6,49.4,29.04,WNW,293,0.0,0.9,54,0.00,,,0.00,WUHU216HW,2013-01-24 23:43:00,
2013-01-24 18:48:00,66.4,49.8,29.06,WNW,293,0.0,0.2,55,0.00,,,0.00,WUHU216HW,2013-01-24 23:48:00,
2013-01-24 18:53:00,65.9,49.2,29.04,WNW,293,0.0,0.0,55,0.00,,,0.00,WUHU216HW,2013-01-24 23:53:00,
2013-01-24 18:58:00,65.3,49.1,29.00,WNW,293,0.0,0.0,56,0.00,,,0.00,WUHU216HW,2013-01-24 23:58:00,
2013-01-24 19:03:00,64.8,49.2,28.97,WNW,293,0.0,0.0,57,0.00,,,0.00,WUHU216HW,2013-01-25 00:03:00,
2013-01-24 19:08:00,64.4,48.8,28.96,WNW,293,0.0,0.0,57,0.00,,,0.00,WUHU216HW,2013-01-25 00:08:00,
2013-01-24 19:13:00,64.3,48.6,28.94,WNW,293,0.0,0.0,57,0.00,,,0.00,WUHU216HW,2013-01-25 00:13:00,
2013-01-24 19:18:00,64.1,49.0,28.92,North,0,1.8,1.8,58,0.00,,,0.00,WUHU216HW,2013-01-25 00:18:00,
2013-01-24 19:23:00,64.1,49.0,28.91,NNE,23,1.8,2.2,58,0.00,,,0.00,WUHU216HW,2013-01-25 00:23:00,
2013-01-24 19:28:00,63.9,49.4,28.90,NNE,23,1.1,2.5,59,0.00,,,0.00,WUHU216HW,2013-01-25 00:28:00,
2013-01-24 19:33:00,63.7,49.1,28.84,NNE,23,0.0,2.5,59,0.00,,,0.00,WUHU216HW,2013-01-25 00:33:00,
2013-01-24 19:38:00,63.7,49.1,28.79,NNE,23,0.7,1.1,59,0.00,,,0.00,WUHU216HW,2013-01-25 00:38:00,
2013-01-24 19:43:00,63.7,49.1,28.79,NNE,23,0.0,0.7,59,0.00,,,0.00,WUHU216HW,2013-01-25 00:43:00,
2013-01-24 19:48:00,63.4,49.2,28.78,NNE,23,0.0,0.7,60,0.00,,,0.00,WUHU216HW,2013-01-25 00:48:00,
2013-01-24 19:53:00,63.0,49.3,28.77,NNE,23,0.0,0.0,61,0.00,,,0.00,WUHU216HW,2013-01-25 00:53:00,
2013-01-24 19:58:00,62.8,49.1,28.76,NNE,23,0.0,0.0,61,0.00,,,0.00,WUHU216HW,2013-01-25 00:58:00,
2013-01-24 20:03:00,62.3,49.2,28.77,NNE,23,0.0,0.0,62,0.00,,,0.00,WUHU216HW,2013-01-25 01:03:00,
2013-01-24 20:08:00,62.1,49.3,28.76,NNE,23,0.0,0.0,63,0.00,,,0.00,WUHU216HW,2013-01-25 01:08:00,
2013-01-24 20:13:00,61.6,48.9,28.56,NNE,23,0.0,0.0,63,0.00,,,0.00,WUHU216HW,2013-01-25 01:13:00,
2013-01-24 20:18:00,61.4,48.7,28.58,NNE,23,0.0,0.0,63,0.00,,,0.00,WUHU216HW,2013-01-25 01:18:00,
2013-01-24 20:23:00,61.0,48.4,28.62,NNE,23,0.0,0.0,63,0.00,,,0.00,WUHU216HW,2013-01-25 01:23:00,
2013-01-24 20:28:00,60.8,48.3,28.63,NNE,23,0.0,0.0,63,0.00,,,0.00,WUHU216HW,2013-01-25 01:28:00,
2013-01-24 20:33:00,60.5,48.2,28.63,NNE,23,0.0,0.0,64,0.00,,,0.00,WUHU216HW,2013-01-25 01:33:00,
2013-01-24 20:38:00,60.1,47.5,28.62,NNE,23,0.0,0.0,63,0.00,,,0.00,WUHU216HW,2013-01-25 01:38:00,
2013-01-24 20:43:00,60.1,47.5,28.63,NNE,23,0.0,0.0,63,0.00,,,0.00,WUHU216HW,2013-01-25 01:43:00,
2013-01-24 20:48:00,60.1,47.5,28.60,NNE,23,0.0,0.0,63,0.00,,,0.00,WUHU216HW,2013-01-25 01:48:00,
2013-01-24 20:53:00,60.1,47.5,28.52,NNE,23,0.0,0.0,63,0.00,,,0.00,WUHU216HW,2013-01-25 01:53:00,
2013-01-24 20:58:00,59.2,47.4,28.47,NNE,23,0.0,0.0,65,0.00,,,0.00,WUHU216HW,2013-01-25 01:58:00,
2013-01-24 21:03:00,59.0,47.7,28.35,NNE,23,0.4,0.4,66,0.00,,,0.00,WUHU216HW,2013-01-25 02:03:00,
2013-01-24 21:08:00,58.9,47.5,28.32,NNE,23,1.3,1.3,66,0.00,,,0.00,WUHU216HW,2013-01-25 02:08:00,
2013-01-24 21:13:00,58.7,47.4,28.33,NNE,23,1.3,1.8,66,0.00,,,0.00,WUHU216HW,2013-01-25 02:13:00,
2013-01-24 21:18:00,58.5,47.5,28.40,NNE,23,0.4,1.8,67,0.00,,,0.00,WUHU216HW,2013-01-25 02:18:00,
2013-01-24 21:23:00,58.3,47.3,28.38,NNE,23,1.1,1.3,67,0.00,,,0.00,WUHU216HW,2013-01-25 02:23:00,
2013-01-24 21:28:00,58.1,47.3,28.38,NNE,23,1.1,1.1,67,0.00,,,0.00,WUHU216HW,2013-01-25 02:28:00,
2013-01-24 21:33:00,58.1,47.6,28.41,NNE,23,1.1,1.3,68,0.00,,,0.00,WUHU216HW,2013-01-25 02:33:00,
2013-01-24 21:38:00,58.0,47.4,28.39,NNE,23,0.9,1.3,68,0.00,,,0.00,WUHU216HW,2013-01-25 02:38:00,
2013-01-24 21:43:00,58.0,47.4,28.39,NNE,23,1.1,1.1,68,0.00,,,0.00,WUHU216HW,2013-01-25 02:43:00,
2013-01-24 21:48:00,58.1,47.6,28.41,NNE,23,1.1,1.3,68,0.00,,,0.00,WUHU216HW,2013-01-25 02:48:00,
2013-01-24 21:53:00,58.3,48.2,28.41,NNE,23,0.7,1.3,69,0.00,,,0.00,WUHU216HW,2013-01-25 02:53:00,
2013-01-24 21:58:00,58.5,48.3,28.43,North,0,0.7,1.1,69,0.00,,,0.00,WUHU216HW,2013-01-25 02:58:00,
2013-01-24 22:03:00,58.5,48.3,28.44,North,0,1.1,1.1,69,0.00,,,0.00,WUHU216HW,2013-01-25 03:03:00,
2013-01-24 22:08:00,58.5,48.3,28.48,North,0,1.1,1.1,69,0.00,,,0.00,WUHU216HW,2013-01-25 03:08:00,
2013-01-24 22:13:00,58.5,48.3,28.48,North,0,0.0,1.1,69,0.00,,,0.00,WUHU216HW,2013-01-25 03:13:00,
2013-01-24 22:18:00,58.7,48.5,28.48,North,0,0.0,1.1,69,0.00,,,0.00,WUHU216HW,2013-01-25 03:18:00,
2013-01-24 22:23:00,58.5,48.3,28.48,North,0,0.7,0.7,69,0.00,,,0.00,WUHU216HW,2013-01-25 03:23:00,
2013-01-24 22:28:00,58.3,48.2,28.46,NNE,23,7.6,8.7,69,0.00,,,0.00,WUHU216HW,2013-01-25 03:28:00,
2013-01-24 22:33:00,58.5,48.3,28.44,NE,45,8.7,9.4,69,0.00,,,0.00,WUHU216HW,2013-01-25 03:33:00,
2013-01-24 22:38:00,58.5,48.3,28.44,NE,45,8.7,9.4,69,0.00,,,0.00,WUHU216HW,2013-01-25 03:38:00,
2013-01-24 22:43:00,58.5,48.3,28.42,NE,45,8.7,8.7,69,0.00,,,0.00,WUHU216HW,2013-01-25 03:43:00,
2013-01-24 22:48:00,58.7,48.5,28.44,NE,45,4.3,8.7,69,0.00,,,0.00,WUHU216HW,2013-01-25 03:48:00,
2013-01-24 22:53:00,58.7,48.5,28.43,NNE,23,5.1,8.7,69,0.00,,,0.00,WUHU216HW,2013-01-25 03:53:00,
2013-01-24 22:58:00,58.7,49.0,28.42,ENE,68,4.3,5.1,70,0.00,,,0.00,WUHU216HW,2013-01-25 03:58:00,
2013-01-24 23:03:00,58.5,48.8,28.41,NNE,23,7.6,7.6,70,0.00,,,0.00,WUHU216HW,2013-01-25 04:03:00,
2013-01-24 23:08:00,58.3,49.0,28.41,NE,45,7.6,7.6,71,0.00,,,0.00,WUHU216HW,2013-01-25 04:08:00,
2013-01-24 23:13:00,58.1,49.5,28.39,ENE,68,4.0,10.5,73,0.00,,,0.00,WUHU216HW,2013-01-25 04:13:00,
2013-01-24 23:18:00,58.0,49.3,28.38,NNE,23,5.4,10.5,73,0.00,,,0.00,WUHU216HW,2013-01-25 04:18:00,
2013-01-24 23:23:00,58.0,49.3,28.39,NE,45,5.1,6.7,73,0.00,,,0.00,WUHU216HW,2013-01-25 04:23:00,
2013-01-24 23:28:00,57.8,49.1,28.39,NNE,23,7.8,7.8,73,0.00,,,0.00,WUHU216HW,2013-01-25 04:28:00,
2013-01-24 23:33:00,57.6,49.0,28.40,NNE,23,5.6,7.8,73,0.00,,,0.00,WUHU216HW,2013-01-25 04:33:00,
2013-01-24 23:38:00,57.6,49.3,28.38,NNE,23,5.1,7.8,74,0.00,,,0.00,WUHU216HW,2013-01-25 04:38:00,
2013-01-24 23:43:00,57.2,49.0,28.39,NNE,23,4.0,8.5,74,0.00,,,0.00,WUHU216HW,2013-01-25 04:43:00,
2013-01-24 23:48:00,57.2,49.0,28.38,NNE,23,6.0,8.5,74,0.00,,,0.00,WUHU216HW,2013-01-25 04:48:00,
2013-01-24 23:53:00,57.1,48.8,28.37,North,0,6.3,6.3,74,0.00,,,0.00,WUHU216HW,2013-01-25 04:53:00,
2013-01-24 23:58:00,56.9,49.0,28.40,NNE,23,3.4,6.3,75,0.00,,,0.00,WUHU216HW,2013-01-25 04:58:00,